Total_Precipitation_Accumulation
0.01 0.02 0.02 0.01 0.01 0.01 0.02 0.02 0.02 0.02 0.02 0.02 0.04 0.07 0.09 0.13 0.14 0.16 0.19 0.23 0.27 0.28 0.32 0.39 0.43 0.46 0.51 0.48 0.46 0.43 0.40 0.46 0.44 0.11 0.03 0.06 0.14 0.20 0.21 0.21 0.23 0.22 0.19
0.01 0.01 0.01 0.02 0.02 0.02 0.02 0.01 0.01 0.02 0.02 0.03 0.07 0.13 0.16 0.19 0.19 0.20 0.24 0.33 0.44 0.45 0.42 0.44 0.47 0.50 0.56 0.58 0.59 0.54 0.44 0.38 0.42 0.27 0.07 0.06 0.11 0.22 0.27 0.26 0.25 0.23 0.20
0.01 0.01 0.01 0.02 0.02 0.02 0.02 0.01 0.02 0.02 0.02 0.03 0.09 0.20 0.26 0.31 0.32 0.30 0.32 0.38 0.53 0.66 0.68 0.69 0.63 0.59 0.61 0.60 0.64 0.61 0.52 0.42 0.39 0.37 0.20 0.11 0.12 0.22 0.34 0.37 0.32 0.28 0.24
0.01 0.01 0.01 0.01 0.01 0.01 0.01 0.02 0.02 0.02 0.03 0.05 0.10 0.20 0.30 0.42 0.54 0.57 0.59 0.56 0.59 0.68 0.75 0.80 0.81 0.83 0.78 0.73 0.72 0.67 0.63 0.59 0.52 0.50 0.37 0.23 0.19 0.24 0.41 0.49 0.43 0.35 0.31
0.00 0.01 0.01 0.01 0.01 0.01 0.01 0.01 0.02 0.02 0.03 0.06 0.07 0.11 0.21 0.49 0.89 0.92 0.83 0.76 0.63 0.56 0.55 0.58 0.68 0.84 0.93 0.98 1.03 0.94 0.89 0.93 0.85 0.76 0.63 0.48 0.37 0.40 0.51 0.57 0.64 0.54 0.44
0.00 0.00 0.00 0.01 0.01 0.01 0.01 0.01 0.01 0.02 0.03 0.04 0.05 0.07 0.14 0.42 0.86 0.93 0.71 0.54 0.40 0.38 0.39 0.38 0.42 0.58 0.70 0.82 0.97 1.01 1.07 1.22 1.26 1.16 0.95 0.76 0.53 0.48 0.55 0.70 0.83 0.88 0.73
0.00 0.00 0.00 0.01 0.01 0.01 0.01 0.01 0.02 0.02 0.03 0.05 0.04 0.03 0.07 0.27 0.67 0.77 0.55 0.33 0.23 0.21 0.23 0.24 0.25 0.34 0.46 0.50 0.62 0.72 0.82 0.99 1.22 1.32 1.26 0.93 0.67 0.52 0.67 0.83 0.88 0.95 0.84
0.00 0.00 0.00 0.00 0.01 0.01 0.01 0.01 0.02 0.02 0.03 0.04 0.04 0.03 0.03 0.13 0.52 0.69 0.51 0.25 0.16 0.15 0.17 0.16 0.14 0.19 0.32 0.46 0.56 0.59 0.59 0.71 1.00 1.25 1.39 1.19 0.95 0.82 0.94 1.16 1.26 1.24 1.06
0.00 0.00 0.00 0.00 0.01 0.01 0.01 0.02 0.02 0.02 0.02 0.03 0.03 0.03 0.03 0.05 0.34 0.68 0.59 0.27 0.16 0.13 0.15 0.17 0.13 0.12 0.27 0.45 0.49 0.45 0.41 0.48 0.64 0.94 1.16 1.20 1.18 1.22 1.32 1.57 1.72 1.66 1.49
0.00 0.00 0.00 0.00 0.01 0.01 0.02 0.02 0.02 0.02 0.02 0.02 0.02 0.02 0.02 0.03 0.19 0.59 0.74 0.35 0.18 0.14 0.13 0.14 0.19 0.23 0.34 0.42 0.39 0.40 0.47 0.43 0.43 0.49 0.59 0.69 0.78 0.85 1.08 1.38 1.57 1.64 1.62
0.00 0.00 0.00 0.01 0.01 0.01 0.01 0.02 0.02 0.02 0.02 0.02 0.02 0.02 0.02 0.03 0.08 0.37 0.75 0.57 0.30 0.22 0.20 0.19 0.18 0.25 0.31 0.35 0.39 0.40 0.49 0.48 0.46 0.54 0.56 0.54 0.58 0.69 0.83 1.08 1.35 1.55 1.68
0.00 0.00 0.00 0.01 0.01 0.01 0.02 0.02 0.02 0.03 0.03 0.03 0.03 0.03 0.03 0.03 0.08 0.25 0.47 0.57 0.45 0.27 0.22 0.17 0.17 0.22 0.28 0.34 0.35 0.37 0.41 0.44 0.46 0.47 0.43 0.43 0.50 0.61 0.73 0.91 1.13 1.30 1.39
0.00 0.00 0.01 0.01 0.01 0.01 0.02 0.03 0.03 0.04 0.05 0.06 0.06 0.05 0.04 0.05 0.12 0.26 0.27 0.30 0.35 0.31 0.30 0.28 0.23 0.25 0.26 0.21 0.21 0.27 0.31 0.32 0.40 0.43 0.38 0.35 0.42 0.55 0.63 0.74 0.88 1.07 1.19
0.01 0.01 0.01 0.01 0.02 0.02 0.03 0.03 0.04 0.06 0.15 0.17 0.14 0.11 0.10 0.12 0.26 0.41 0.30 0.20 0.24 0.29 0.29 0.27 0.23 0.22 0.19 0.14 0.13 0.15 0.18 0.24 0.32 0.38 0.34 0.30 0.32 0.43 0.55 0.69 0.84 0.98 1.16
0.02 0.01 0.01 0.02 0.03 0.03 0.03 0.03 0.05 0.07 0.21 0.30 0.23 0.23 0.29 0.42 0.46 0.53 0.45 0.38 0.40 0.44 0.41 0.36 0.27 0.21 0.20 0.16 0.12 0.10 0.12 0.17 0.23 0.26 0.29 0.30 0.33 0.40 0.49 0.61 0.82 0.97 1.12
0.02 0.01 0.02 0.03 0.03 0.04 0.04 0.04 0.05 0.07 0.13 0.15 0.16 0.21 0.24 0.42 0.43 0.36 0.34 0.33 0.39 0.44 0.44 0.41 0.25 0.18 0.18 0.16 0.15 0.12 0.11 0.13 0.16 0.21 0.27 0.30 0.35 0.41 0.48 0.55 0.72 0.92 1.03
0.03 0.02 0.03 0.04 0.04 0.04 0.05 0.08 0.10 0.08 0.08 0.08 0.09 0.13 0.21 0.30 0.30 0.26 0.25 0.23 0.24 0.26 0.30 0.25 0.18 0.15 0.15 0.14 0.14 0.14 0.12 0.10 0.14 0.20 0.24 0.27 0.32 0.38 0.45 0.52 0.62 0.77 0.90
0.02 0.03 0.04 0.04 0.06 0.07 0.09 0.11 0.13 0.14 0.12 0.07 0.06 0.08 0.14 0.20 0.21 0.21 0.20 0.21 0.18 0.13 0.16 0.16 0.16 0.16 0.16 0.17 0.16 0.15 0.14 0.13 0.16 0.18 0.19 0.21 0.27 0.35 0.41 0.45 0.52 0.67 0.81
0.01 0.02 0.04 0.06 0.07 0.09 0.10 0.12 0.13 0.14 0.14 0.11 0.08 0.09 0.11 0.12 0.13 0.13 0.16 0.20 0.18 0.14 0.13 0.14 0.15 0.17 0.17 0.17 0.17 0.16 0.16 0.16 0.14 0.16 0.17 0.18 0.22 0.31 0.36 0.38 0.45 0.56 0.72
0.02 0.04 0.07 0.08 0.09 0.10 0.12 0.15 0.17 0.18 0.18 0.15 0.13 0.12 0.18 0.22 0.20 0.15 0.14 0.17 0.19 0.16 0.14 0.15 0.15 0.16 0.18 0.18 0.18 0.18 0.18 0.16 0.15 0.17 0.17 0.17 0.20 0.26 0.32 0.34 0.41 0.50 0.60
0.04 0.05 0.07 0.08 0.09 0.12 0.16 0.19 0.22 0.25 0.24 0.19 0.13 0.12 0.29 0.37 0.27 0.18 0.16 0.17 0.20 0.20 0.19 0.18 0.17 0.17 0.18 0.19 0.19 0.19 0.18 0.15 0.14 0.15 0.16 0.16 0.18 0.21 0.23 0.29 0.35 0.42 0.51
0.07 0.07 0.08 0.10 0.13 0.16 0.20 0.22 0.25 0.26 0.23 0.21 0.15 0.12 0.18 0.21 0.19 0.19 0.18 0.16 0.17 0.19 0.21 0.24 0.22 0.19 0.20 0.22 0.23 0.23 0.20 0.15 0.13 0.14 0.16 0.15 0.16 0.18 0.19 0.23 0.28 0.35 0.43
0.09 0.11 0.12 0.13 0.15 0.19 0.22 0.20 0.23 0.24 0.23 0.21 0.20 0.18 0.17 0.18 0.18 0.19 0.19 0.18 0.18 0.18 0.18 0.21 0.24 0.20 0.18 0.19 0.21 0.24 0.24 0.19 0.15 0.17 0.20 0.18 0.16 0.16 0.17 0.21 0.24 0.30 0.40
0.12 0.15 0.17 0.18 0.19 0.21 0.24 0.24 0.24 0.25 0.25 0.23 0.21 0.20 0.19 0.19 0.18 0.17 0.17 0.17 0.18 0.18 0.18 0.22 0.23 0.21 0.20 0.19 0.18 0.18 0.18 0.17 0.20 0.24 0.23 0.24 0.21 0.18 0.19 0.22 0.23 0.28 0.36
0.15 0.18 0.20 0.22 0.26 0.27 0.28 0.27 0.25 0.24 0.24 0.23 0.21 0.20 0.19 0.18 0.16 0.15 0.14 0.15 0.16 0.16 0.16 0.19 0.22 0.23 0.21 0.19 0.17 0.16 0.16 0.19 0.26 0.36 0.43 0.41 0.31 0.23 0.23 0.25 0.25 0.27 0.35
0.16 0.19 0.22 0.26 0.29 0.31 0.33 0.33 0.29 0.27 0.26 0.23 0.22 0.22 0.21 0.20 0.18 0.17 0.16 0.17 0.19 0.17 0.16 0.17 0.20 0.23 0.21 0.19 0.17 0.17 0.19 0.23 0.29 0.37 0.51 0.58 0.44 0.30 0.27 0.30 0.28 0.30 0.35